Newport, RI

9:48 AM EST on November 17, 2019 (GMT -0500)
Newport State

Weather History for KUUU - October, 2019

Change the Weather History Date:

Thursday, October 17, 2019

  Actual Average Record
Temperature  
Mean Temperature 57 °F -  
Max Temperature 62 °F 62 °F 75 °F (2016)
Min Temperature 51 °F 46 °F 36 °F (1961)
Degree Days  
Heating Degree Days 8    
Growing Degree Days 7 (Base 50)    
Moisture  
Dew Point 49 °F    
Average Humidity 75    
Maximum Humidity 93    
Minimum Humidity 53    
Precipitation  
Precipitation 0.92 in - - ()
Sea Level Pressure  
Sea Level Pressure 29.08 in    
Wind  
Wind Speed 14 mph ()    
Max Wind Speed 29 mph    
Max Gust Speed 48 mph    
Visibility 7.7 miles    
Events Rain    
Averages and records for this station are not official NWS values.
T = Trace of Precipitation, MM = Missing Value Source: Averaged Metar Reports

Daily Weather History Graph

Daily Weather History Graph

Search for Another Location

Airport or City:

Astronomy

Oct. 17, 2019 Rise Set
Actual Time 6:59 AM EDT 6:01 PM EDT
Civil Twilight 6:31 AM EDT 6:29 PM EDT
Nautical Twilight 5:58 AM EDT 7:01 PM EDT
Astronomical Twilight 5:26 AM EDT 7:33 PM EDT
Moon 8:28 PM EDT 10:29 AM EDT
Length of Visible Light 11h 58m
Length of Day
11h 02m
Waning Gibbous, 87% of the Moon is Illuminated
Oct 17
Waning Gibbous
Oct 21
Last Quarter
Oct 27
New
Nov 4
First Quarter
Nov 12
Full

Hourly Weather History & Observations

Time (EDT) Temp. Dew Point Humidity Pressure Visibility Wind Dir Wind Speed Gust Speed Precip Events Conditions
12:14 AM 62.1 °F 60.1 °F 93% 29.13 in 1.8 mi East 23.0 mph 48.3 mph 0.15 in Rain Heavy Rain
12:24 AM 62.1 °F 60.1 °F 93% 29.11 in 2.5 mi East 26.5 mph 40.3 mph 0.21 in Rain Heavy Rain
12:36 AM 63.0 °F 60.1 °F 90% 29.08 in 1.5 mi ESE 18.4 mph 42.6 mph 0.35 in Rain Heavy Rain
12:53 AM 62.1 °F 60.1 °F 93% 29.03 in 2.0 mi East 21.9 mph 38.0 mph 0.43 in Rain Heavy Rain
1:04 AM 62.1 °F 59.0 °F 90% 29.00 in 3.0 mi East 27.6 mph 38.0 mph 0.03 in Rain Rain
1:09 AM 62.1 °F 59.0 °F 90% 28.99 in 1.8 mi East 28.8 mph 39.1 mph 0.08 in Rain Heavy Rain
1:31 AM 61.0 °F 59.0 °F 93% 28.97 in 1.5 mi East 15.0 mph 33.4 mph 0.38 in Rain Heavy Rain
1:46 AM 61.0 °F 59.0 °F 93% 28.88 in 2.0 mi NE 13.8 mph 19.6 mph 0.48 in Rain Rain
1:53 AM 61.0 °F 57.9 °F 90% 28.88 in 6.0 mi ENE 8.1 mph 19.6 mph 0.48 in Rain Light Rain
2:08 AM 61.0 °F 57.9 °F 90% 28.91 in 10.0 mi SSE 8.1 mph - 0.00 in   Mostly Cloudy
2:19 AM 61.0 °F 57.9 °F 90% 28.91 in 10.0 mi Variable 4.6 mph - 0.00 in   Mostly Cloudy
2:42 AM 61.0 °F 57.9 °F 90% 28.91 in 2.5 mi SSW 6.9 mph - 0.01 in Rain Light Rain
2:49 AM 60.8 °F 57.2 °F 88% 28.90 in 4.0 mi SSW 8.1 mph - 0.01 in Rain Light Rain
2:53 AM 61.0 °F 59.0 °F 93% 28.90 in 6.0 mi SSW 5.8 mph - 0.01 in Rain Light Rain
3:53 AM 59.0 °F 57.0 °F 93% 28.87 in 6.0 mi Variable 6.9 mph 19.6 mph 0.00 in   Overcast
4:18 AM 55.0 °F 51.1 °F 86% 28.91 in 10.0 mi West 13.8 mph 27.6 mph 0.00 in   Overcast
4:53 AM 53.1 °F 46.9 °F 80% 28.96 in 10.0 mi Variable 5.8 mph 23.0 mph 0.00 in   Overcast
5:27 AM 52.0 °F 45.0 °F 77% 28.99 in 10.0 mi SW 13.8 mph 24.2 mph N/A   Scattered Clouds
5:46 AM 52.0 °F 44.1 °F 74% 29.01 in 10.0 mi WSW 11.5 mph 23.0 mph N/A   Mostly Cloudy
5:53 AM 52.0 °F 43.0 °F 71% 29.01 in 10.0 mi SW 9.2 mph 27.6 mph N/A   Mostly Cloudy
6:27 AM 51.1 °F 42.1 °F 71% 29.04 in 10.0 mi WSW 9.2 mph 25.3 mph N/A   Mostly Cloudy
6:53 AM 52.0 °F 42.1 °F 69% 29.07 in 10.0 mi Variable 6.9 mph 25.3 mph N/A   Overcast
7:53 AM 52.0 °F 42.1 °F 69% 29.11 in 10.0 mi WSW 12.7 mph 25.3 mph N/A   Overcast
8:53 AM 54.0 °F 39.9 °F 59% 29.12 in 10.0 mi WSW 10.4 mph 26.5 mph N/A   Overcast
9:53 AM 55.0 °F 39.9 °F 57% 29.11 in 10.0 mi WSW 10.4 mph 31.1 mph N/A   Partly Cloudy
10:53 AM 57.0 °F 39.9 °F 53% 29.11 in 10.0 mi WSW 15.0 mph 26.5 mph N/A   Mostly Cloudy
11:53 AM 57.0 °F 41.0 °F 55% 29.11 in 10.0 mi SW 11.5 mph 27.6 mph N/A   Mostly Cloudy
12:53 PM 57.9 °F 41.0 °F 53% 29.10 in 10.0 mi WSW 11.5 mph 25.3 mph N/A   Mostly Cloudy
1:53 PM 57.9 °F 41.0 °F 53% 29.10 in 10.0 mi WSW 8.1 mph 31.1 mph N/A   Mostly Cloudy
2:53 PM 57.0 °F 42.1 °F 57% 29.13 in 10.0 mi North - - N/A   Overcast
3:53 PM 55.9 °F 41.0 °F 57% 29.16 in 10.0 mi West 11.5 mph 23.0 mph N/A   Overcast
4:53 PM 54.0 °F 42.1 °F 64% 29.21 in 10.0 mi West 18.4 mph 36.8 mph 0.00 in   Overcast
5:53 PM 54.0 °F 42.1 °F 64% 29.25 in 10.0 mi West 17.3 mph 28.8 mph N/A   Mostly Cloudy
6:53 PM 53.1 °F 42.1 °F 66% 29.28 in 10.0 mi West 12.7 mph 24.2 mph N/A   Scattered Clouds
7:53 PM 54.0 °F 42.1 °F 64% 29.31 in 10.0 mi West 12.7 mph 26.5 mph N/A   Partly Cloudy
8:53 PM 53.1 °F 42.1 °F 66% 29.35 in 10.0 mi West 11.5 mph 24.2 mph N/A   Partly Cloudy
9:53 PM 54.0 °F 41.0 °F 62% 29.39 in 10.0 mi West 9.2 mph 20.7 mph N/A   Overcast
10:53 PM 53.1 °F 41.0 °F 64% 29.42 in 10.0 mi West 8.1 mph - N/A   Scattered Clouds
11:53 PM 53.1 °F 41.0 °F 64% 29.46 in 10.0 mi West 8.1 mph 19.6 mph N/A   Mostly Cloudy